Location: Córrego Montividiu
(13.2496°S, 48.8603°W)
Time: 19:45:19
(UTC+00:00)

Cosmos 2369 Rocket - Pass Details

Date: 11 March 2026
Orbit: 829 x 850 km, 71.0° (Epoch: 17 April)

Event Time Altitude Azimuth Distance (km) Brightness Sun altitude
Rises 21:53:10 0° 200° (SSW) 3,418 5.7 -6.0°
Reaches altitude 10° 21:55:38 10° 202° (SSW) 2,480 5.0 -6.6°
Maximum altitude 22:01:19 71° 285° (WNW) 899 2.6 -7.9°
Drops below altitude 10° 22:06:57 10° 8° (N) 2,464 4.5 -9.3°
Sets 22:09:23 0° 11° (N) 3,394 5.2 -9.9°
